<?xml version="1.0" encoding="UTF-8"?>
<gpx version="1.1" creator="2bulu-scraper" xmlns="http://www.topografix.com/GPX/1/1">
  <metadata><name>双古15KM新</name><desc>source: 2bulu.com trackId=81428074; exported 2026-09-01T15:45:56.780Z</desc>
    <bounds minlat="29.521339" minlon="104.260085" maxlat="29.550757" maxlon="104.281338"/>
    <link href="https://www.2bulu.com/track/t-zIdWuy2Qn5vp%252FR2KBg5Tzw%253D%253D.htm"><text>2bulu 源页面</text></link>
  </metadata>
  <wpt lat="29.522502" lon="104.260514"><ele>497</ele><name>CP3打卡点/SP2补给站</name></wpt>
  <wpt lat="29.538861" lon="104.269361"><ele>624</ele><name>CP2打卡点/SP1补给站</name></wpt>
  <wpt lat="29.550738" lon="104.274495"><ele>461</ele><name>起点</name></wpt>
  <wpt lat="29.550729" lon="104.274514"><ele>461</ele><name>终点</name></wpt>
  <wpt lat="29.537528" lon="104.28129"><ele>610</ele><name>CP1打卡点</name></wpt>
  <trk><name>双古15KM新</name>
      <trkseg>
        <trkpt lat="29.550757" lon="104.274519"><ele>461</ele><time></time></trkpt>
        <trkpt lat="29.549863" lon="104.274135"><ele>471</ele><time></time></trkpt>
        <trkpt lat="29.549325" lon="104.274171"><ele>473</ele><time></time></trkpt>
        <trkpt lat="29.549054" lon="104.274107"><ele>471</ele><time></time></trkpt>
        <trkpt lat="29.548914" lon="104.27415"><ele>467</ele><time></time></trkpt>
        <trkpt lat="29.548779" lon="104.274176"><ele>467</ele><time></time></trkpt>
        <trkpt lat="29.548556" lon="104.274134"><ele>468</ele><time></time></trkpt>
        <trkpt lat="29.548457" lon="104.274203"><ele>473</ele><time></time></trkpt>
        <trkpt lat="29.548168" lon="104.274353"><ele>478</ele><time></time></trkpt>
        <trkpt lat="29.548009" lon="104.274418"><ele>478</ele><time></time></trkpt>
        <trkpt lat="29.547776" lon="104.274486"><ele>477</ele><time></time></trkpt>
        <trkpt lat="29.547579" lon="104.274584"><ele>473</ele><time></time></trkpt>
        <trkpt lat="29.547073" lon="104.274857"><ele>486</ele><time></time></trkpt>
        <trkpt lat="29.546581" lon="104.275114"><ele>480</ele><time></time></trkpt>
        <trkpt lat="29.546403" lon="104.275243"><ele>479</ele><time></time></trkpt>
        <trkpt lat="29.545909" lon="104.275307"><ele>486</ele><time></time></trkpt>
        <trkpt lat="29.545354" lon="104.275328"><ele>495</ele><time></time></trkpt>
        <trkpt lat="29.545186" lon="104.27535"><ele>495</ele><time></time></trkpt>
        <trkpt lat="29.544929" lon="104.275526"><ele>488</ele><time></time></trkpt>
        <trkpt lat="29.544845" lon="104.275687"><ele>486</ele><time></time></trkpt>
        <trkpt lat="29.544901" lon="104.275917"><ele>490</ele><time></time></trkpt>
        <trkpt lat="29.544998" lon="104.276116"><ele>494</ele><time></time></trkpt>
        <trkpt lat="29.544947" lon="104.276346"><ele>501</ele><time></time></trkpt>
        <trkpt lat="29.545283" lon="104.276308"><ele>496</ele><time></time></trkpt>
        <trkpt lat="29.545404" lon="104.276416"><ele>496</ele><time></time></trkpt>
        <trkpt lat="29.545376" lon="104.276635"><ele>500</ele><time></time></trkpt>
        <trkpt lat="29.545058" lon="104.277069"><ele>506</ele><time></time></trkpt>
        <trkpt lat="29.54503" lon="104.277511"><ele>514</ele><time></time></trkpt>
        <trkpt lat="29.545099" lon="104.277873"><ele>523</ele><time></time></trkpt>
        <trkpt lat="29.545253" lon="104.278065"><ele>524</ele><time></time></trkpt>
        <trkpt lat="29.545188" lon="104.278242"><ele>531</ele><time></time></trkpt>
        <trkpt lat="29.54508" lon="104.278338"><ele>529</ele><time></time></trkpt>
        <trkpt lat="29.545005" lon="104.278574"><ele>530</ele><time></time></trkpt>
        <trkpt lat="29.545131" lon="104.278858"><ele>530</ele><time></time></trkpt>
        <trkpt lat="29.545112" lon="104.27904"><ele>530</ele><time></time></trkpt>
        <trkpt lat="29.545149" lon="104.279351"><ele>533</ele><time></time></trkpt>
        <trkpt lat="29.545177" lon="104.279527"><ele>533</ele><time></time></trkpt>
        <trkpt lat="29.545125" lon="104.279758"><ele>537</ele><time></time></trkpt>
        <trkpt lat="29.544999" lon="104.279988"><ele>542</ele><time></time></trkpt>
        <trkpt lat="29.54506" lon="104.280165"><ele>546</ele><time></time></trkpt>
        <trkpt lat="29.545218" lon="104.280293"><ele>543</ele><time></time></trkpt>
        <trkpt lat="29.545381" lon="104.280368"><ele>543</ele><time></time></trkpt>
        <trkpt lat="29.545353" lon="104.28054"><ele>550</ele><time></time></trkpt>
        <trkpt lat="29.54512" lon="104.280599"><ele>554</ele><time></time></trkpt>
        <trkpt lat="29.545073" lon="104.280593"><ele>554</ele><time></time></trkpt>
        <trkpt lat="29.544812" lon="104.280577"><ele>558</ele><time></time></trkpt>
        <trkpt lat="29.544434" lon="104.280668"><ele>563</ele><time></time></trkpt>
        <trkpt lat="29.544065" lon="104.280583"><ele>568</ele><time></time></trkpt>
        <trkpt lat="29.544075" lon="104.280481"><ele>568</ele><time></time></trkpt>
        <trkpt lat="29.544056" lon="104.280309"><ele>565</ele><time></time></trkpt>
        <trkpt lat="29.543979" lon="104.280075"><ele>563</ele><time></time></trkpt>
        <trkpt lat="29.543833" lon="104.279945"><ele>563</ele><time></time></trkpt>
        <trkpt lat="29.543716" lon="104.279779"><ele>557</ele><time></time></trkpt>
        <trkpt lat="29.54368" lon="104.279201"><ele>558</ele><time></time></trkpt>
        <trkpt lat="29.543615" lon="104.278831"><ele>565</ele><time></time></trkpt>
        <trkpt lat="29.543535" lon="104.278637"><ele>562</ele><time></time></trkpt>
        <trkpt lat="29.54341" lon="104.278505"><ele>556</ele><time></time></trkpt>
        <trkpt lat="29.5432" lon="104.278542"><ele>556</ele><time></time></trkpt>
        <trkpt lat="29.543041" lon="104.278569"><ele>552</ele><time></time></trkpt>
        <trkpt lat="29.542701" lon="104.278456"><ele>565</ele><time></time></trkpt>
        <trkpt lat="29.542584" lon="104.278202"><ele>557</ele><time></time></trkpt>
        <trkpt lat="29.542486" lon="104.278095"><ele>566</ele><time></time></trkpt>
        <trkpt lat="29.542354" lon="104.278035"><ele>560</ele><time></time></trkpt>
        <trkpt lat="29.54225" lon="104.277958"><ele>560</ele><time></time></trkpt>
        <trkpt lat="29.541862" lon="104.277709"><ele>570</ele><time></time></trkpt>
        <trkpt lat="29.541682" lon="104.277736"><ele>569</ele><time></time></trkpt>
        <trkpt lat="29.541479" lon="104.277907"><ele>575</ele><time></time></trkpt>
        <trkpt lat="29.541288" lon="104.277779"><ele>575</ele><time></time></trkpt>
        <trkpt lat="29.541039" lon="104.277479"><ele>579</ele><time></time></trkpt>
        <trkpt lat="29.540766" lon="104.277259"><ele>594</ele><time></time></trkpt>
        <trkpt lat="29.54067" lon="104.277262"><ele>613</ele><time></time></trkpt>
        <trkpt lat="29.540538" lon="104.27744"><ele>580</ele><time></time></trkpt>
        <trkpt lat="29.540332" lon="104.27765"><ele>580</ele><time></time></trkpt>
        <trkpt lat="29.540079" lon="104.277798"><ele>587</ele><time></time></trkpt>
        <trkpt lat="29.539767" lon="104.277897"><ele>607</ele><time></time></trkpt>
        <trkpt lat="29.539412" lon="104.278312"><ele>601</ele><time></time></trkpt>
        <trkpt lat="29.539005" lon="104.278692"><ele>607</ele><time></time></trkpt>
        <trkpt lat="29.538996" lon="104.279287"><ele>586</ele><time></time></trkpt>
        <trkpt lat="29.538888" lon="104.279538"><ele>578</ele><time></time></trkpt>
        <trkpt lat="29.53851" lon="104.279683"><ele>601</ele><time></time></trkpt>
        <trkpt lat="29.538383" lon="104.280095"><ele>621</ele><time></time></trkpt>
        <trkpt lat="29.538285" lon="104.280422"><ele>599</ele><time></time></trkpt>
        <trkpt lat="29.538247" lon="104.280727"><ele>589</ele><time></time></trkpt>
        <trkpt lat="29.538233" lon="104.281097"><ele>583</ele><time></time></trkpt>
        <trkpt lat="29.538154" lon="104.281225"><ele>593</ele><time></time></trkpt>
        <trkpt lat="29.537813" lon="104.281231"><ele>606</ele><time></time></trkpt>
        <trkpt lat="29.537528" lon="104.28129"><ele>610</ele><time></time></trkpt>
        <trkpt lat="29.537281" lon="104.281338"><ele>621</ele><time></time></trkpt>
        <trkpt lat="29.53716" lon="104.281279"><ele>621</ele><time></time></trkpt>
        <trkpt lat="29.537002" lon="104.280931"><ele>626</ele><time></time></trkpt>
        <trkpt lat="29.536755" lon="104.280481"><ele>604</ele><time></time></trkpt>
        <trkpt lat="29.536648" lon="104.28001"><ele>609</ele><time></time></trkpt>
        <trkpt lat="29.536634" lon="104.279528"><ele>631</ele><time></time></trkpt>
        <trkpt lat="29.536457" lon="104.279324"><ele>598</ele><time></time></trkpt>
        <trkpt lat="29.536192" lon="104.279174"><ele>590</ele><time></time></trkpt>
        <trkpt lat="29.535879" lon="104.279057"><ele>577</ele><time></time></trkpt>
        <trkpt lat="29.53559" lon="104.279099"><ele>572</ele><time></time></trkpt>
        <trkpt lat="29.535123" lon="104.279164"><ele>575</ele><time></time></trkpt>
        <trkpt lat="29.534854" lon="104.279303"><ele>582</ele><time></time></trkpt>
        <trkpt lat="29.534652" lon="104.279169"><ele>582</ele><time></time></trkpt>
        <trkpt lat="29.534456" lon="104.279067"><ele>576</ele><time></time></trkpt>
        <trkpt lat="29.534293" lon="104.278966"><ele>587</ele><time></time></trkpt>
        <trkpt lat="29.533985" lon="104.27901"><ele>581</ele><time></time></trkpt>
        <trkpt lat="29.53378" lon="104.278939"><ele>581</ele><time></time></trkpt>
        <trkpt lat="29.533644" lon="104.278761"><ele>579</ele><time></time></trkpt>
        <trkpt lat="29.533617" lon="104.278462"><ele>594</ele><time></time></trkpt>
        <trkpt lat="29.533505" lon="104.2782"><ele>594</ele><time></time></trkpt>
        <trkpt lat="29.533407" lon="104.278007"><ele>583</ele><time></time></trkpt>
        <trkpt lat="29.533328" lon="104.277964"><ele>583</ele><time></time></trkpt>
        <trkpt lat="29.533041" lon="104.278034"><ele>576</ele><time></time></trkpt>
        <trkpt lat="29.532901" lon="104.278044"><ele>564</ele><time></time></trkpt>
        <trkpt lat="29.532773" lon="104.277986"><ele>564</ele><time></time></trkpt>
        <trkpt lat="29.532628" lon="104.277814"><ele>566</ele><time></time></trkpt>
        <trkpt lat="29.532337" lon="104.277426"><ele>565</ele><time></time></trkpt>
        <trkpt lat="29.532256" lon="104.277222"><ele>569</ele><time></time></trkpt>
        <trkpt lat="29.532265" lon="104.277118"><ele>569</ele><time></time></trkpt>
        <trkpt lat="29.532342" lon="104.276885"><ele>572</ele><time></time></trkpt>
        <trkpt lat="29.532387" lon="104.276673"><ele>584</ele><time></time></trkpt>
        <trkpt lat="29.532397" lon="104.276416"><ele>589</ele><time></time></trkpt>
        <trkpt lat="29.532427" lon="104.276229"><ele>581</ele><time></time></trkpt>
        <trkpt lat="29.532427" lon="104.276017"><ele>581</ele><time></time></trkpt>
        <trkpt lat="29.532383" lon="104.275803"><ele>580</ele><time></time></trkpt>
        <trkpt lat="29.532274" lon="104.275621"><ele>575</ele><time></time></trkpt>
        <trkpt lat="29.532181" lon="104.275441"><ele>575</ele><time></time></trkpt>
        <trkpt lat="29.532197" lon="104.275243"><ele>576</ele><time></time></trkpt>
        <trkpt lat="29.532255" lon="104.275125"><ele>578</ele><time></time></trkpt>
        <trkpt lat="29.532433" lon="104.27497"><ele>578</ele><time></time></trkpt>
        <trkpt lat="29.532512" lon="104.274903"><ele>578</ele><time></time></trkpt>
        <trkpt lat="29.532708" lon="104.274911"><ele>580</ele><time></time></trkpt>
        <trkpt lat="29.532811" lon="104.274965"><ele>580</ele><time></time></trkpt>
        <trkpt lat="29.533028" lon="104.275085"><ele>587</ele><time></time></trkpt>
        <trkpt lat="29.533151" lon="104.275115"><ele>587</ele><time></time></trkpt>
        <trkpt lat="29.533329" lon="104.275045"><ele>596</ele><time></time></trkpt>
        <trkpt lat="29.533449" lon="104.275013"><ele>596</ele><time></time></trkpt>
        <trkpt lat="29.533843" lon="104.275083"><ele>578</ele><time></time></trkpt>
        <trkpt lat="29.533989" lon="104.275197"><ele>590</ele><time></time></trkpt>
        <trkpt lat="29.534218" lon="104.275344"><ele>589</ele><time></time></trkpt>
        <trkpt lat="29.534355" lon="104.275432"><ele>592</ele><time></time></trkpt>
        <trkpt lat="29.534482" lon="104.275552"><ele>592</ele><time></time></trkpt>
        <trkpt lat="29.534644" lon="104.275655"><ele>587</ele><time></time></trkpt>
        <trkpt lat="29.534826" lon="104.27568"><ele>587</ele><time></time></trkpt>
        <trkpt lat="29.535001" lon="104.275688"><ele>577</ele><time></time></trkpt>
        <trkpt lat="29.535241" lon="104.275765"><ele>577</ele><time></time></trkpt>
        <trkpt lat="29.535526" lon="104.275688"><ele>572</ele><time></time></trkpt>
        <trkpt lat="29.535672" lon="104.2758"><ele>573</ele><time></time></trkpt>
        <trkpt lat="29.535908" lon="104.275969"><ele>570</ele><time></time></trkpt>
        <trkpt lat="29.536063" lon="104.276018"><ele>577</ele><time></time></trkpt>
        <trkpt lat="29.536199" lon="104.276178"><ele>577</ele><time></time></trkpt>
        <trkpt lat="29.536357" lon="104.276187"><ele>575</ele><time></time></trkpt>
        <trkpt lat="29.536433" lon="104.276145"><ele>575</ele><time></time></trkpt>
        <trkpt lat="29.53654" lon="104.276107"><ele>570</ele><time></time></trkpt>
        <trkpt lat="29.536581" lon="104.275967"><ele>563</ele><time></time></trkpt>
        <trkpt lat="29.53647" lon="104.275792"><ele>567</ele><time></time></trkpt>
        <trkpt lat="29.536373" lon="104.275556"><ele>568</ele><time></time></trkpt>
        <trkpt lat="29.536345" lon="104.275294"><ele>570</ele><time></time></trkpt>
        <trkpt lat="29.536366" lon="104.275052"><ele>570</ele><time></time></trkpt>
        <trkpt lat="29.53641" lon="104.275204"><ele>570</ele><time></time></trkpt>
        <trkpt lat="29.536501" lon="104.275422"><ele>568</ele><time></time></trkpt>
        <trkpt lat="29.536588" lon="104.275491"><ele>566</ele><time></time></trkpt>
        <trkpt lat="29.536839" lon="104.275566"><ele>567</ele><time></time></trkpt>
        <trkpt lat="29.537117" lon="104.275615"><ele>568</ele><time></time></trkpt>
        <trkpt lat="29.537409" lon="104.275584"><ele>572</ele><time></time></trkpt>
        <trkpt lat="29.537561" lon="104.275626"><ele>572</ele><time></time></trkpt>
        <trkpt lat="29.5376" lon="104.275658"><ele>572</ele><time></time></trkpt>
        <trkpt lat="29.537616" lon="104.275711"><ele>571</ele><time></time></trkpt>
        <trkpt lat="29.537649" lon="104.275749"><ele>590</ele><time></time></trkpt>
        <trkpt lat="29.537651" lon="104.275787"><ele>590</ele><time></time></trkpt>
        <trkpt lat="29.53767" lon="104.275846"><ele>590</ele><time></time></trkpt>
        <trkpt lat="29.53768" lon="104.275921"><ele>590</ele><time></time></trkpt>
        <trkpt lat="29.537699" lon="104.275967"><ele>590</ele><time></time></trkpt>
        <trkpt lat="29.537768" lon="104.27606"><ele>606</ele><time></time></trkpt>
        <trkpt lat="29.537794" lon="104.276112"><ele>606</ele><time></time></trkpt>
        <trkpt lat="29.537807" lon="104.276206"><ele>606</ele><time></time></trkpt>
        <trkpt lat="29.537749" lon="104.276298"><ele>632</ele><time></time></trkpt>
        <trkpt lat="29.537703" lon="104.27632"><ele>632</ele><time></time></trkpt>
        <trkpt lat="29.537735" lon="104.276368"><ele>632</ele><time></time></trkpt>
        <trkpt lat="29.537823" lon="104.27634"><ele>632</ele><time></time></trkpt>
        <trkpt lat="29.53789" lon="104.27634"><ele>632</ele><time></time></trkpt>
        <trkpt lat="29.537923" lon="104.276385"><ele>639</ele><time></time></trkpt>
        <trkpt lat="29.537976" lon="104.276483"><ele>639</ele><time></time></trkpt>
        <trkpt lat="29.537955" lon="104.27652"><ele>639</ele><time></time></trkpt>
        <trkpt lat="29.537988" lon="104.27655"><ele>643</ele><time></time></trkpt>
        <trkpt lat="29.538041" lon="104.276566"><ele>643</ele><time></time></trkpt>
        <trkpt lat="29.53805" lon="104.276621"><ele>643</ele><time></time></trkpt>
        <trkpt lat="29.538099" lon="104.276629"><ele>643</ele><time></time></trkpt>
        <trkpt lat="29.538103" lon="104.276688"><ele>643</ele><time></time></trkpt>
        <trkpt lat="29.538127" lon="104.276732"><ele>643</ele><time></time></trkpt>
        <trkpt lat="29.538203" lon="104.276844"><ele>646</ele><time></time></trkpt>
        <trkpt lat="29.538295" lon="104.277132"><ele>644</ele><time></time></trkpt>
        <trkpt lat="29.538397" lon="104.277106"><ele>644</ele><time></time></trkpt>
        <trkpt lat="29.538448" lon="104.277009"><ele>646</ele><time></time></trkpt>
        <trkpt lat="29.538394" lon="104.276835"><ele>646</ele><time></time></trkpt>
        <trkpt lat="29.538373" lon="104.276582"><ele>645</ele><time></time></trkpt>
        <trkpt lat="29.538462" lon="104.276389"><ele>644</ele><time></time></trkpt>
        <trkpt lat="29.538574" lon="104.276277"><ele>646</ele><time></time></trkpt>
        <trkpt lat="29.538775" lon="104.276258"><ele>645</ele><time></time></trkpt>
        <trkpt lat="29.53891" lon="104.276261"><ele>645</ele><time></time></trkpt>
        <trkpt lat="29.539076" lon="104.276228"><ele>652</ele><time></time></trkpt>
        <trkpt lat="29.539087" lon="104.276137"><ele>652</ele><time></time></trkpt>
        <trkpt lat="29.539015" lon="104.27607"><ele>645</ele><time></time></trkpt>
        <trkpt lat="29.539027" lon="104.275928"><ele>645</ele><time></time></trkpt>
        <trkpt lat="29.539102" lon="104.275883"><ele>650</ele><time></time></trkpt>
        <trkpt lat="29.539188" lon="104.275845"><ele>650</ele><time></time></trkpt>
        <trkpt lat="29.53923" lon="104.275837"><ele>650</ele><time></time></trkpt>
        <trkpt lat="29.539319" lon="104.27577"><ele>656</ele><time></time></trkpt>
        <trkpt lat="29.539351" lon="104.275687"><ele>650</ele><time></time></trkpt>
        <trkpt lat="29.53936" lon="104.275507"><ele>650</ele><time></time></trkpt>
        <trkpt lat="29.539328" lon="104.275334"><ele>648</ele><time></time></trkpt>
        <trkpt lat="29.539247" lon="104.275149"><ele>645</ele><time></time></trkpt>
        <trkpt lat="29.539156" lon="104.275023"><ele>642</ele><time></time></trkpt>
        <trkpt lat="29.539023" lon="104.274911"><ele>639</ele><time></time></trkpt>
        <trkpt lat="29.538853" lon="104.274884"><ele>639</ele><time></time></trkpt>
        <trkpt lat="29.538797" lon="104.274852"><ele>644</ele><time></time></trkpt>
        <trkpt lat="29.538785" lon="104.274806"><ele>644</ele><time></time></trkpt>
        <trkpt lat="29.538811" lon="104.274648"><ele>644</ele><time></time></trkpt>
        <trkpt lat="29.538893" lon="104.27445"><ele>652</ele><time></time></trkpt>
        <trkpt lat="29.539017" lon="104.274284"><ele>657</ele><time></time></trkpt>
        <trkpt lat="29.539066" lon="104.273946"><ele>662</ele><time></time></trkpt>
        <trkpt lat="29.539099" lon="104.273743"><ele>668</ele><time></time></trkpt>
        <trkpt lat="29.539078" lon="104.273622"><ele>668</ele><time></time></trkpt>
        <trkpt lat="29.538955" lon="104.273352"><ele>661</ele><time></time></trkpt>
        <trkpt lat="29.538929" lon="104.27318"><ele>671</ele><time></time></trkpt>
        <trkpt lat="29.538915" lon="104.273036"><ele>671</ele><time></time></trkpt>
        <trkpt lat="29.538843" lon="104.272926"><ele>671</ele><time></time></trkpt>
        <trkpt lat="29.538799" lon="104.272907"><ele>681</ele><time></time></trkpt>
        <trkpt lat="29.538706" lon="104.272919"><ele>670</ele><time></time></trkpt>
        <trkpt lat="29.538633" lon="104.272985"><ele>670</ele><time></time></trkpt>
        <trkpt lat="29.538554" lon="104.273089"><ele>670</ele><time></time></trkpt>
        <trkpt lat="29.538502" lon="104.273239"><ele>656</ele><time></time></trkpt>
        <trkpt lat="29.538418" lon="104.273363"><ele>658</ele><time></time></trkpt>
        <trkpt lat="29.538315" lon="104.273392"><ele>658</ele><time></time></trkpt>
        <trkpt lat="29.538199" lon="104.273298"><ele>658</ele><time></time></trkpt>
        <trkpt lat="29.538157" lon="104.273199"><ele>667</ele><time></time></trkpt>
        <trkpt lat="29.538178" lon="104.273114"><ele>669</ele><time></time></trkpt>
        <trkpt lat="29.538223" lon="104.272835"><ele>674</ele><time></time></trkpt>
        <trkpt lat="29.538267" lon="104.272519"><ele>678</ele><time></time></trkpt>
        <trkpt lat="29.538279" lon="104.272342"><ele>680</ele><time></time></trkpt>
        <trkpt lat="29.538298" lon="104.271986"><ele>681</ele><time></time></trkpt>
        <trkpt lat="29.538193" lon="104.271774"><ele>668</ele><time></time></trkpt>
        <trkpt lat="29.537976" lon="104.271785"><ele>668</ele><time></time></trkpt>
        <trkpt lat="29.537787" lon="104.271761"><ele>660</ele><time></time></trkpt>
        <trkpt lat="29.537706" lon="104.271683"><ele>660</ele><time></time></trkpt>
        <trkpt lat="29.537577" lon="104.271472"><ele>657</ele><time></time></trkpt>
        <trkpt lat="29.537426" lon="104.271204"><ele>664</ele><time></time></trkpt>
        <trkpt lat="29.537355" lon="104.27103"><ele>655</ele><time></time></trkpt>
        <trkpt lat="29.537144" lon="104.270904"><ele>659</ele><time></time></trkpt>
        <trkpt lat="29.537051" lon="104.270834"><ele>657</ele><time></time></trkpt>
        <trkpt lat="29.537014" lon="104.270764"><ele>657</ele><time></time></trkpt>
        <trkpt lat="29.537009" lon="104.270582"><ele>664</ele><time></time></trkpt>
        <trkpt lat="29.537042" lon="104.27032"><ele>667</ele><time></time></trkpt>
        <trkpt lat="29.537105" lon="104.270229"><ele>673</ele><time></time></trkpt>
        <trkpt lat="29.537196" lon="104.270092"><ele>673</ele><time></time></trkpt>
        <trkpt lat="29.537203" lon="104.269886"><ele>673</ele><time></time></trkpt>
        <trkpt lat="29.537252" lon="104.269737"><ele>670</ele><time></time></trkpt>
        <trkpt lat="29.537251" lon="104.269666"><ele>670</ele><time></time></trkpt>
        <trkpt lat="29.53724" lon="104.269592"><ele>670</ele><time></time></trkpt>
        <trkpt lat="29.537145" lon="104.269514"><ele>658</ele><time></time></trkpt>
        <trkpt lat="29.537024" lon="104.26942"><ele>656</ele><time></time></trkpt>
        <trkpt lat="29.536983" lon="104.269357"><ele>656</ele><time></time></trkpt>
        <trkpt lat="29.537015" lon="104.269279"><ele>650</ele><time></time></trkpt>
        <trkpt lat="29.537088" lon="104.269303"><ele>646</ele><time></time></trkpt>
        <trkpt lat="29.537179" lon="104.269335"><ele>658</ele><time></time></trkpt>
        <trkpt lat="29.537304" lon="104.26939"><ele>658</ele><time></time></trkpt>
        <trkpt lat="29.537468" lon="104.269374"><ele>658</ele><time></time></trkpt>
        <trkpt lat="29.53766" lon="104.269375"><ele>656</ele><time></time></trkpt>
        <trkpt lat="29.537983" lon="104.269373"><ele>646</ele><time></time></trkpt>
        <trkpt lat="29.538139" lon="104.269341"><ele>646</ele><time></time></trkpt>
        <trkpt lat="29.53823" lon="104.269374"><ele>638</ele><time></time></trkpt>
        <trkpt lat="29.538741" lon="104.269535"><ele>631</ele><time></time></trkpt>
        <trkpt lat="29.538813" lon="104.269465"><ele>624</ele><time></time></trkpt>
        <trkpt lat="29.538855" lon="104.269334"><ele>624</ele><time></time></trkpt>
        <trkpt lat="29.538869" lon="104.269165"><ele>610</ele><time></time></trkpt>
        <trkpt lat="29.53889" lon="104.269007"><ele>604</ele><time></time></trkpt>
        <trkpt lat="29.538958" lon="104.268927"><ele>604</ele><time></time></trkpt>
        <trkpt lat="29.538984" lon="104.268795"><ele>604</ele><time></time></trkpt>
        <trkpt lat="29.538991" lon="104.268602"><ele>602</ele><time></time></trkpt>
        <trkpt lat="29.539077" lon="104.268431"><ele>601</ele><time></time></trkpt>
        <trkpt lat="29.539063" lon="104.268327"><ele>601</ele><time></time></trkpt>
        <trkpt lat="29.538882" lon="104.268056"><ele>604</ele><time></time></trkpt>
        <trkpt lat="29.53867" lon="104.267884"><ele>605</ele><time></time></trkpt>
        <trkpt lat="29.538425" lon="104.267753"><ele>609</ele><time></time></trkpt>
        <trkpt lat="29.538247" lon="104.267705"><ele>609</ele><time></time></trkpt>
        <trkpt lat="29.538112" lon="104.267692"><ele>613</ele><time></time></trkpt>
        <trkpt lat="29.537856" lon="104.267622"><ele>602</ele><time></time></trkpt>
        <trkpt lat="29.537443" lon="104.267549"><ele>592</ele><time></time></trkpt>
        <trkpt lat="29.537264" lon="104.267529"><ele>590</ele><time></time></trkpt>
        <trkpt lat="29.536962" lon="104.267317"><ele>580</ele><time></time></trkpt>
        <trkpt lat="29.53689" lon="104.267295"><ele>580</ele><time></time></trkpt>
        <trkpt lat="29.536491" lon="104.267266"><ele>579</ele><time></time></trkpt>
        <trkpt lat="29.536155" lon="104.267228"><ele>581</ele><time></time></trkpt>
        <trkpt lat="29.53609" lon="104.266982"><ele>573</ele><time></time></trkpt>
        <trkpt lat="29.535815" lon="104.267121"><ele>579</ele><time></time></trkpt>
        <trkpt lat="29.535516" lon="104.26726"><ele>575</ele><time></time></trkpt>
        <trkpt lat="29.535283" lon="104.267432"><ele>574</ele><time></time></trkpt>
        <trkpt lat="29.535021" lon="104.267534"><ele>575</ele><time></time></trkpt>
        <trkpt lat="29.534753" lon="104.267502"><ele>575</ele><time></time></trkpt>
        <trkpt lat="29.534583" lon="104.267502"><ele>581</ele><time></time></trkpt>
        <trkpt lat="29.534389" lon="104.267561"><ele>581</ele><time></time></trkpt>
        <trkpt lat="29.53424" lon="104.267636"><ele>578</ele><time></time></trkpt>
        <trkpt lat="29.534018" lon="104.267416"><ele>585</ele><time></time></trkpt>
        <trkpt lat="29.533906" lon="104.267207"><ele>572</ele><time></time></trkpt>
        <trkpt lat="29.533594" lon="104.266998"><ele>570</ele><time></time></trkpt>
        <trkpt lat="29.533365" lon="104.266869"><ele>572</ele><time></time></trkpt>
        <trkpt lat="29.532955" lon="104.266644"><ele>566</ele><time></time></trkpt>
        <trkpt lat="29.53254" lon="104.266559"><ele>580</ele><time></time></trkpt>
        <trkpt lat="29.532367" lon="104.26665"><ele>580</ele><time></time></trkpt>
        <trkpt lat="29.532134" lon="104.266971"><ele>590</ele><time></time></trkpt>
        <trkpt lat="29.532098" lon="104.2671"><ele>599</ele><time></time></trkpt>
        <trkpt lat="29.531998" lon="104.267263"><ele>594</ele><time></time></trkpt>
        <trkpt lat="29.531802" lon="104.267528"><ele>586</ele><time></time></trkpt>
        <trkpt lat="29.531704" lon="104.267729"><ele>586</ele><time></time></trkpt>
        <trkpt lat="29.531883" lon="104.268064"><ele>587</ele><time></time></trkpt>
        <trkpt lat="29.531939" lon="104.268254"><ele>579</ele><time></time></trkpt>
        <trkpt lat="29.532039" lon="104.268434"><ele>579</ele><time></time></trkpt>
        <trkpt lat="29.532303" lon="104.268914"><ele>576</ele><time></time></trkpt>
        <trkpt lat="29.53227" lon="104.268972"><ele>576</ele><time></time></trkpt>
        <trkpt lat="29.531985" lon="104.268739"><ele>575</ele><time></time></trkpt>
        <trkpt lat="29.531729" lon="104.268734"><ele>566</ele><time></time></trkpt>
        <trkpt lat="29.531638" lon="104.268721"><ele>566</ele><time></time></trkpt>
        <trkpt lat="29.531565" lon="104.268659"><ele>566</ele><time></time></trkpt>
        <trkpt lat="29.531521" lon="104.268616"><ele>559</ele><time></time></trkpt>
        <trkpt lat="29.531519" lon="104.268876"><ele>556</ele><time></time></trkpt>
        <trkpt lat="29.531472" lon="104.269005"><ele>556</ele><time></time></trkpt>
        <trkpt lat="29.531422" lon="104.269028"><ele>553</ele><time></time></trkpt>
        <trkpt lat="29.531319" lon="104.268928"><ele>556</ele><time></time></trkpt>
        <trkpt lat="29.531227" lon="104.26876"><ele>554</ele><time></time></trkpt>
        <trkpt lat="29.531192" lon="104.268753"><ele>554</ele><time></time></trkpt>
        <trkpt lat="29.531166" lon="104.268804"><ele>554</ele><time></time></trkpt>
        <trkpt lat="29.531164" lon="104.26892"><ele>554</ele><time></time></trkpt>
        <trkpt lat="29.531187" lon="104.269023"><ele>554</ele><time></time></trkpt>
        <trkpt lat="29.531388" lon="104.269172"><ele>553</ele><time></time></trkpt>
        <trkpt lat="29.531489" lon="104.269214"><ele>553</ele><time></time></trkpt>
        <trkpt lat="29.531601" lon="104.269222"><ele>554</ele><time></time></trkpt>
        <trkpt lat="29.531768" lon="104.269287"><ele>554</ele><time></time></trkpt>
        <trkpt lat="29.531888" lon="104.269404"><ele>548</ele><time></time></trkpt>
        <trkpt lat="29.531906" lon="104.269452"><ele>548</ele><time></time></trkpt>
        <trkpt lat="29.531869" lon="104.269562"><ele>548</ele><time></time></trkpt>
        <trkpt lat="29.531754" lon="104.269693"><ele>533</ele><time></time></trkpt>
        <trkpt lat="29.531807" lon="104.269768"><ele>538</ele><time></time></trkpt>
        <trkpt lat="29.531835" lon="104.26981"><ele>538</ele><time></time></trkpt>
        <trkpt lat="29.531826" lon="104.269849"><ele>538</ele><time></time></trkpt>
        <trkpt lat="29.5318" lon="104.269882"><ele>512</ele><time></time></trkpt>
        <trkpt lat="29.531703" lon="104.269877"><ele>512</ele><time></time></trkpt>
        <trkpt lat="29.531641" lon="104.269856"><ele>533</ele><time></time></trkpt>
        <trkpt lat="29.531542" lon="104.269786"><ele>533</ele><time></time></trkpt>
        <trkpt lat="29.531498" lon="104.269812"><ele>530</ele><time></time></trkpt>
        <trkpt lat="29.531499" lon="104.270001"><ele>508</ele><time></time></trkpt>
        <trkpt lat="29.531478" lon="104.270039"><ele>508</ele><time></time></trkpt>
        <trkpt lat="29.531476" lon="104.270059"><ele>508</ele><time></time></trkpt>
        <trkpt lat="29.531435" lon="104.27009"><ele>508</ele><time></time></trkpt>
        <trkpt lat="29.531393" lon="104.270217"><ele>494</ele><time></time></trkpt>
        <trkpt lat="29.531414" lon="104.270635"><ele>488</ele><time></time></trkpt>
        <trkpt lat="29.531346" lon="104.270734"><ele>481</ele><time></time></trkpt>
        <trkpt lat="29.531441" lon="104.270775"><ele>481</ele><time></time></trkpt>
        <trkpt lat="29.531492" lon="104.270773"><ele>481</ele><time></time></trkpt>
        <trkpt lat="29.531566" lon="104.270903"><ele>488</ele><time></time></trkpt>
        <trkpt lat="29.531635" lon="104.271002"><ele>478</ele><time></time></trkpt>
        <trkpt lat="29.531657" lon="104.271058"><ele>478</ele><time></time></trkpt>
        <trkpt lat="29.53166" lon="104.271115"><ele>478</ele><time></time></trkpt>
        <trkpt lat="29.531644" lon="104.271167"><ele>478</ele><time></time></trkpt>
        <trkpt lat="29.531602" lon="104.271176"><ele>478</ele><time></time></trkpt>
        <trkpt lat="29.531546" lon="104.271157"><ele>478</ele><time></time></trkpt>
        <trkpt lat="29.531521" lon="104.271107"><ele>475</ele><time></time></trkpt>
        <trkpt lat="29.531484" lon="104.271079"><ele>475</ele><time></time></trkpt>
        <trkpt lat="29.531336" lon="104.271093"><ele>475</ele><time></time></trkpt>
        <trkpt lat="29.531289" lon="104.271133"><ele>475</ele><time></time></trkpt>
        <trkpt lat="29.53132" lon="104.271168"><ele>475</ele><time></time></trkpt>
        <trkpt lat="29.531371" lon="104.271179"><ele>475</ele><time></time></trkpt>
        <trkpt lat="29.531415" lon="104.271206"><ele>475</ele><time></time></trkpt>
        <trkpt lat="29.53149" lon="104.2713"><ele>474</ele><time></time></trkpt>
        <trkpt lat="29.53151" lon="104.271366"><ele>474</ele><time></time></trkpt>
        <trkpt lat="29.531399" lon="104.27131"><ele>474</ele><time></time></trkpt>
        <trkpt lat="29.531275" lon="104.271331"><ele>474</ele><time></time></trkpt>
        <trkpt lat="29.531081" lon="104.271401"><ele>477</ele><time></time></trkpt>
        <trkpt lat="29.530795" lon="104.271504"><ele>480</ele><time></time></trkpt>
        <trkpt lat="29.53062" lon="104.271487"><ele>479</ele><time></time></trkpt>
        <trkpt lat="29.530371" lon="104.271349"><ele>475</ele><time></time></trkpt>
        <trkpt lat="29.530124" lon="104.271145"><ele>470</ele><time></time></trkpt>
        <trkpt lat="29.530012" lon="104.270963"><ele>471</ele><time></time></trkpt>
        <trkpt lat="29.529646" lon="104.27092"><ele>470</ele><time></time></trkpt>
        <trkpt lat="29.529513" lon="104.270861"><ele>467</ele><time></time></trkpt>
        <trkpt lat="29.529364" lon="104.270588"><ele>469</ele><time></time></trkpt>
        <trkpt lat="29.529327" lon="104.270427"><ele>469</ele><time></time></trkpt>
        <trkpt lat="29.529147" lon="104.270202"><ele>465</ele><time></time></trkpt>
        <trkpt lat="29.528973" lon="104.270071"><ele>461</ele><time></time></trkpt>
        <trkpt lat="29.528772" lon="104.270384"><ele>462</ele><time></time></trkpt>
        <trkpt lat="29.528681" lon="104.270711"><ele>466</ele><time></time></trkpt>
        <trkpt lat="29.528638" lon="104.270821"><ele>466</ele><time></time></trkpt>
        <trkpt lat="29.528617" lon="104.270907"><ele>466</ele><time></time></trkpt>
        <trkpt lat="29.528557" lon="104.270877"><ele>466</ele><time></time></trkpt>
        <trkpt lat="29.528387" lon="104.270636"><ele>476</ele><time></time></trkpt>
        <trkpt lat="29.528163" lon="104.270639"><ele>489</ele><time></time></trkpt>
        <trkpt lat="29.527908" lon="104.270764"><ele>502</ele><time></time></trkpt>
        <trkpt lat="29.52777" lon="104.270806"><ele>502</ele><time></time></trkpt>
        <trkpt lat="29.527764" lon="104.270867"><ele>502</ele><time></time></trkpt>
        <trkpt lat="29.527732" lon="104.270899"><ele>502</ele><time></time></trkpt>
        <trkpt lat="29.528108" lon="104.271258"><ele>492</ele><time></time></trkpt>
        <trkpt lat="29.528163" lon="104.271424"><ele>492</ele><time></time></trkpt>
        <trkpt lat="29.528178" lon="104.271547"><ele>488</ele><time></time></trkpt>
        <trkpt lat="29.528142" lon="104.271661"><ele>488</ele><time></time></trkpt>
        <trkpt lat="29.528098" lon="104.271701"><ele>488</ele><time></time></trkpt>
        <trkpt lat="29.527902" lon="104.271728"><ele>502</ele><time></time></trkpt>
        <trkpt lat="29.527784" lon="104.271788"><ele>502</ele><time></time></trkpt>
        <trkpt lat="29.527731" lon="104.271875"><ele>499</ele><time></time></trkpt>
        <trkpt lat="29.527716" lon="104.272056"><ele>499</ele><time></time></trkpt>
        <trkpt lat="29.527865" lon="104.272329"><ele>499</ele><time></time></trkpt>
        <trkpt lat="29.527846" lon="104.272442"><ele>496</ele><time></time></trkpt>
        <trkpt lat="29.527748" lon="104.272592"><ele>496</ele><time></time></trkpt>
        <trkpt lat="29.527566" lon="104.272967"><ele>505</ele><time></time></trkpt>
        <trkpt lat="29.527244" lon="104.273218"><ele>505</ele><time></time></trkpt>
        <trkpt lat="29.52708" lon="104.27343"><ele>515</ele><time></time></trkpt>
        <trkpt lat="29.526581" lon="104.273867"><ele>526</ele><time></time></trkpt>
        <trkpt lat="29.526115" lon="104.274111"><ele>537</ele><time></time></trkpt>
        <trkpt lat="29.52628" lon="104.273658"><ele>540</ele><time></time></trkpt>
        <trkpt lat="29.526334" lon="104.273414"><ele>543</ele><time></time></trkpt>
        <trkpt lat="29.526378" lon="104.27305"><ele>543</ele><time></time></trkpt>
        <trkpt lat="29.526341" lon="104.272894"><ele>547</ele><time></time></trkpt>
        <trkpt lat="29.526437" lon="104.272466"><ele>553</ele><time></time></trkpt>
        <trkpt lat="29.526388" lon="104.272123"><ele>562</ele><time></time></trkpt>
        <trkpt lat="29.526244" lon="104.271467"><ele>598</ele><time></time></trkpt>
        <trkpt lat="29.526219" lon="104.271277"><ele>598</ele><time></time></trkpt>
        <trkpt lat="29.526134" lon="104.271096"><ele>592</ele><time></time></trkpt>
        <trkpt lat="29.526103" lon="104.270986"><ele>592</ele><time></time></trkpt>
        <trkpt lat="29.5261" lon="104.270875"><ele>592</ele><time></time></trkpt>
        <trkpt lat="29.526104" lon="104.270768"><ele>592</ele><time></time></trkpt>
        <trkpt lat="29.526064" lon="104.27062"><ele>582</ele><time></time></trkpt>
        <trkpt lat="29.525993" lon="104.270473"><ele>582</ele><time></time></trkpt>
        <trkpt lat="29.525872" lon="104.270356"><ele>588</ele><time></time></trkpt>
        <trkpt lat="29.525663" lon="104.270271"><ele>594</ele><time></time></trkpt>
        <trkpt lat="29.525149" lon="104.270044"><ele>598</ele><time></time></trkpt>
        <trkpt lat="29.524573" lon="104.269774"><ele>616</ele><time></time></trkpt>
        <trkpt lat="29.524503" lon="104.26972"><ele>616</ele><time></time></trkpt>
        <trkpt lat="29.524479" lon="104.269494"><ele>605</ele><time></time></trkpt>
        <trkpt lat="29.524468" lon="104.269185"><ele>586</ele><time></time></trkpt>
        <trkpt lat="29.524488" lon="104.269071"><ele>586</ele><time></time></trkpt>
        <trkpt lat="29.524404" lon="104.268862"><ele>590</ele><time></time></trkpt>
        <trkpt lat="29.524362" lon="104.268659"><ele>582</ele><time></time></trkpt>
        <trkpt lat="29.524298" lon="104.268399"><ele>586</ele><time></time></trkpt>
        <trkpt lat="29.524338" lon="104.268267"><ele>582</ele><time></time></trkpt>
        <trkpt lat="29.524343" lon="104.268136"><ele>568</ele><time></time></trkpt>
        <trkpt lat="29.524389" lon="104.267931"><ele>568</ele><time></time></trkpt>
        <trkpt lat="29.524391" lon="104.267605"><ele>557</ele><time></time></trkpt>
        <trkpt lat="29.524374" lon="104.267431"><ele>557</ele><time></time></trkpt>
        <trkpt lat="29.52434" lon="104.267274"><ele>550</ele><time></time></trkpt>
        <trkpt lat="29.524277" lon="104.267114"><ele>572</ele><time></time></trkpt>
        <trkpt lat="29.524243" lon="104.267048"><ele>569</ele><time></time></trkpt>
        <trkpt lat="29.524172" lon="104.266973"><ele>569</ele><time></time></trkpt>
        <trkpt lat="29.523973" lon="104.266862"><ele>585</ele><time></time></trkpt>
        <trkpt lat="29.523744" lon="104.26676"><ele>594</ele><time></time></trkpt>
        <trkpt lat="29.523588" lon="104.266658"><ele>594</ele><time></time></trkpt>
        <trkpt lat="29.523481" lon="104.266497"><ele>580</ele><time></time></trkpt>
        <trkpt lat="29.523413" lon="104.266259"><ele>603</ele><time></time></trkpt>
        <trkpt lat="29.52305" lon="104.265766"><ele>583</ele><time></time></trkpt>
        <trkpt lat="29.522821" lon="104.265471"><ele>582</ele><time></time></trkpt>
        <trkpt lat="29.522789" lon="104.265268"><ele>573</ele><time></time></trkpt>
        <trkpt lat="29.522649" lon="104.265"><ele>567</ele><time></time></trkpt>
        <trkpt lat="29.522528" lon="104.264689"><ele>566</ele><time></time></trkpt>
        <trkpt lat="29.522579" lon="104.264362"><ele>565</ele><time></time></trkpt>
        <trkpt lat="29.522617" lon="104.264083"><ele>564</ele><time></time></trkpt>
        <trkpt lat="29.523079" lon="104.263751"><ele>560</ele><time></time></trkpt>
        <trkpt lat="29.523345" lon="104.263435"><ele>545</ele><time></time></trkpt>
        <trkpt lat="29.523429" lon="104.263108"><ele>549</ele><time></time></trkpt>
        <trkpt lat="29.523387" lon="104.26291"><ele>544</ele><time></time></trkpt>
        <trkpt lat="29.523252" lon="104.262717"><ele>544</ele><time></time></trkpt>
        <trkpt lat="29.523224" lon="104.26232"><ele>534</ele><time></time></trkpt>
        <trkpt lat="29.523108" lon="104.262149"><ele>537</ele><time></time></trkpt>
        <trkpt lat="29.522902" lon="104.26202"><ele>531</ele><time></time></trkpt>
        <trkpt lat="29.522137" lon="104.261768"><ele>511</ele><time></time></trkpt>
        <trkpt lat="29.521755" lon="104.26157"><ele>499</ele><time></time></trkpt>
        <trkpt lat="29.521358" lon="104.261543"><ele>494</ele><time></time></trkpt>
        <trkpt lat="29.521339" lon="104.261409"><ele>493</ele><time></time></trkpt>
        <trkpt lat="29.521466" lon="104.261184"><ele>488</ele><time></time></trkpt>
        <trkpt lat="29.522044" lon="104.260664"><ele>484</ele><time></time></trkpt>
        <trkpt lat="29.522418" lon="104.260525"><ele>497</ele><time></time></trkpt>
        <trkpt lat="29.522702" lon="104.260466"><ele>494</ele><time></time></trkpt>
        <trkpt lat="29.52301" lon="104.260337"><ele>475</ele><time></time></trkpt>
        <trkpt lat="29.524107" lon="104.260326"><ele>464</ele><time></time></trkpt>
        <trkpt lat="29.524354" lon="104.260423"><ele>455</ele><time></time></trkpt>
        <trkpt lat="29.52476" lon="104.260482"><ele>466</ele><time></time></trkpt>
        <trkpt lat="29.52494" lon="104.260444"><ele>461</ele><time></time></trkpt>
        <trkpt lat="29.525166" lon="104.260374"><ele>457</ele><time></time></trkpt>
        <trkpt lat="29.525334" lon="104.260227"><ele>457</ele><time></time></trkpt>
        <trkpt lat="29.525463" lon="104.260096"><ele>449</ele><time></time></trkpt>
        <trkpt lat="29.525773" lon="104.260085"><ele>441</ele><time></time></trkpt>
        <trkpt lat="29.526006" lon="104.260337"><ele>440</ele><time></time></trkpt>
        <trkpt lat="29.52616" lon="104.260599"><ele>441</ele><time></time></trkpt>
        <trkpt lat="29.526127" lon="104.260867"><ele>442</ele><time></time></trkpt>
        <trkpt lat="29.526192" lon="104.261157"><ele>441</ele><time></time></trkpt>
        <trkpt lat="29.526472" lon="104.260991"><ele>441</ele><time></time></trkpt>
        <trkpt lat="29.526729" lon="104.260835"><ele>442</ele><time></time></trkpt>
        <trkpt lat="29.526843" lon="104.260819"><ele>449</ele><time></time></trkpt>
        <trkpt lat="29.527177" lon="104.260953"><ele>454</ele><time></time></trkpt>
        <trkpt lat="29.527287" lon="104.26076"><ele>454</ele><time></time></trkpt>
        <trkpt lat="29.527287" lon="104.26076"><ele>454</ele><time></time></trkpt>
        <trkpt lat="29.527336" lon="104.260731"><ele>454</ele><time></time></trkpt>
        <trkpt lat="29.527502" lon="104.260837"><ele>456</ele><time></time></trkpt>
        <trkpt lat="29.52776" lon="104.2608"><ele>452</ele><time></time></trkpt>
        <trkpt lat="29.527858" lon="104.260815"><ele>452</ele><time></time></trkpt>
        <trkpt lat="29.528032" lon="104.260798"><ele>450</ele><time></time></trkpt>
        <trkpt lat="29.528051" lon="104.260768"><ele>450</ele><time></time></trkpt>
        <trkpt lat="29.528368" lon="104.260828"><ele>448</ele><time></time></trkpt>
        <trkpt lat="29.528568" lon="104.260872"><ele>450</ele><time></time></trkpt>
        <trkpt lat="29.528647" lon="104.260954"><ele>450</ele><time></time></trkpt>
        <trkpt lat="29.528846" lon="104.260984"><ele>454</ele><time></time></trkpt>
        <trkpt lat="29.528995" lon="104.261016"><ele>454</ele><time></time></trkpt>
        <trkpt lat="29.529373" lon="104.2611"><ele>451</ele><time></time></trkpt>
        <trkpt lat="29.529625" lon="104.261103"><ele>453</ele><time></time></trkpt>
        <trkpt lat="29.529891" lon="104.261107"><ele>450</ele><time></time></trkpt>
        <trkpt lat="29.530127" lon="104.261082"><ele>450</ele><time></time></trkpt>
        <trkpt lat="29.530169" lon="104.26107"><ele>451</ele><time></time></trkpt>
        <trkpt lat="29.530249" lon="104.261066"><ele>451</ele><time></time></trkpt>
        <trkpt lat="29.530749" lon="104.260926"><ele>448</ele><time></time></trkpt>
        <trkpt lat="29.5309" lon="104.260948"><ele>448</ele><time></time></trkpt>
        <trkpt lat="29.531218" lon="104.260891"><ele>451</ele><time></time></trkpt>
        <trkpt lat="29.531451" lon="104.260749"><ele>450</ele><time></time></trkpt>
        <trkpt lat="29.531829" lon="104.260674"><ele>446</ele><time></time></trkpt>
        <trkpt lat="29.53213" lon="104.26068"><ele>447</ele><time></time></trkpt>
        <trkpt lat="29.532354" lon="104.260701"><ele>445</ele><time></time></trkpt>
        <trkpt lat="29.532587" lon="104.26061"><ele>449</ele><time></time></trkpt>
        <trkpt lat="29.532715" lon="104.260714"><ele>449</ele><time></time></trkpt>
        <trkpt lat="29.53282" lon="104.260867"><ele>449</ele><time></time></trkpt>
        <trkpt lat="29.533035" lon="104.260934"><ele>452</ele><time></time></trkpt>
        <trkpt lat="29.533154" lon="104.260897"><ele>452</ele><time></time></trkpt>
        <trkpt lat="29.533616" lon="104.260562"><ele>446</ele><time></time></trkpt>
        <trkpt lat="29.533695" lon="104.260479"><ele>446</ele><time></time></trkpt>
        <trkpt lat="29.533901" lon="104.26046"><ele>447</ele><time></time></trkpt>
        <trkpt lat="29.533947" lon="104.260422"><ele>447</ele><time></time></trkpt>
        <trkpt lat="29.534437" lon="104.260623"><ele>445</ele><time></time></trkpt>
        <trkpt lat="29.534715" lon="104.260677"><ele>452</ele><time></time></trkpt>
        <trkpt lat="29.535011" lon="104.260594"><ele>450</ele><time></time></trkpt>
        <trkpt lat="29.535254" lon="104.260476"><ele>448</ele><time></time></trkpt>
        <trkpt lat="29.535389" lon="104.26054"><ele>448</ele><time></time></trkpt>
        <trkpt lat="29.535562" lon="104.260642"><ele>447</ele><time></time></trkpt>
        <trkpt lat="29.535832" lon="104.260519"><ele>448</ele><time></time></trkpt>
        <trkpt lat="29.536042" lon="104.260827"><ele>459</ele><time></time></trkpt>
        <trkpt lat="29.536121" lon="104.260864"><ele>459</ele><time></time></trkpt>
        <trkpt lat="29.536354" lon="104.261148"><ele>455</ele><time></time></trkpt>
        <trkpt lat="29.536443" lon="104.261114"><ele>455</ele><time></time></trkpt>
        <trkpt lat="29.536565" lon="104.260931"><ele>453</ele><time></time></trkpt>
        <trkpt lat="29.536653" lon="104.260797"><ele>453</ele><time></time></trkpt>
        <trkpt lat="29.537045" lon="104.260963"><ele>460</ele><time></time></trkpt>
        <trkpt lat="29.537334" lon="104.260974"><ele>466</ele><time></time></trkpt>
        <trkpt lat="29.537577" lon="104.260915"><ele>461</ele><time></time></trkpt>
        <trkpt lat="29.537927" lon="104.260926"><ele>452</ele><time></time></trkpt>
        <trkpt lat="29.538154" lon="104.260937"><ele>452</ele><time></time></trkpt>
        <trkpt lat="29.538383" lon="104.261032"><ele>450</ele><time></time></trkpt>
        <trkpt lat="29.538734" lon="104.261032"><ele>450</ele><time></time></trkpt>
        <trkpt lat="29.538806" lon="104.260971"><ele>451</ele><time></time></trkpt>
        <trkpt lat="29.538939" lon="104.261001"><ele>453</ele><time></time></trkpt>
        <trkpt lat="29.539063" lon="104.261068"><ele>452</ele><time></time></trkpt>
        <trkpt lat="29.539189" lon="104.261151"><ele>452</ele><time></time></trkpt>
        <trkpt lat="29.539249" lon="104.261274"><ele>452</ele><time></time></trkpt>
        <trkpt lat="29.539368" lon="104.261344"><ele>454</ele><time></time></trkpt>
        <trkpt lat="29.539387" lon="104.261467"><ele>454</ele><time></time></trkpt>
        <trkpt lat="29.539672" lon="104.261553"><ele>456</ele><time></time></trkpt>
        <trkpt lat="29.539919" lon="104.261874"><ele>458</ele><time></time></trkpt>
        <trkpt lat="29.540124" lon="104.262078"><ele>458</ele><time></time></trkpt>
        <trkpt lat="29.540226" lon="104.262142"><ele>456</ele><time></time></trkpt>
        <trkpt lat="29.540404" lon="104.262132"><ele>456</ele><time></time></trkpt>
        <trkpt lat="29.540637" lon="104.262271"><ele>453</ele><time></time></trkpt>
        <trkpt lat="29.540898" lon="104.262325"><ele>452</ele><time></time></trkpt>
        <trkpt lat="29.541029" lon="104.262325"><ele>455</ele><time></time></trkpt>
        <trkpt lat="29.54115" lon="104.262378"><ele>454</ele><time></time></trkpt>
        <trkpt lat="29.541234" lon="104.262437"><ele>454</ele><time></time></trkpt>
        <trkpt lat="29.541374" lon="104.262432"><ele>452</ele><time></time></trkpt>
        <trkpt lat="29.541649" lon="104.262539"><ele>451</ele><time></time></trkpt>
        <trkpt lat="29.541826" lon="104.262593"><ele>451</ele><time></time></trkpt>
        <trkpt lat="29.541985" lon="104.262678"><ele>459</ele><time></time></trkpt>
        <trkpt lat="29.542064" lon="104.262678"><ele>459</ele><time></time></trkpt>
        <trkpt lat="29.542232" lon="104.262877"><ele>456</ele><time></time></trkpt>
        <trkpt lat="29.542475" lon="104.263032"><ele>453</ele><time></time></trkpt>
        <trkpt lat="29.542652" lon="104.263128"><ele>457</ele><time></time></trkpt>
        <trkpt lat="29.542904" lon="104.263069"><ele>457</ele><time></time></trkpt>
        <trkpt lat="29.543118" lon="104.263262"><ele>451</ele><time></time></trkpt>
        <trkpt lat="29.543354" lon="104.26322"><ele>454</ele><time></time></trkpt>
        <trkpt lat="29.543536" lon="104.263252"><ele>451</ele><time></time></trkpt>
        <trkpt lat="29.543662" lon="104.263455"><ele>451</ele><time></time></trkpt>
        <trkpt lat="29.543778" lon="104.263538"><ele>447</ele><time></time></trkpt>
        <trkpt lat="29.544005" lon="104.263552"><ele>447</ele><time></time></trkpt>
        <trkpt lat="29.544161" lon="104.263638"><ele>453</ele><time></time></trkpt>
        <trkpt lat="29.544219" lon="104.263879"><ele>448</ele><time></time></trkpt>
        <trkpt lat="29.544298" lon="104.264098"><ele>454</ele><time></time></trkpt>
        <trkpt lat="29.544214" lon="104.264329"><ele>463</ele><time></time></trkpt>
        <trkpt lat="29.544228" lon="104.264624"><ele>469</ele><time></time></trkpt>
        <trkpt lat="29.544195" lon="104.264924"><ele>467</ele><time></time></trkpt>
        <trkpt lat="29.54413" lon="104.265122"><ele>467</ele><time></time></trkpt>
        <trkpt lat="29.544017" lon="104.265273"><ele>457</ele><time></time></trkpt>
        <trkpt lat="29.543906" lon="104.26532"><ele>457</ele><time></time></trkpt>
        <trkpt lat="29.544096" lon="104.265406"><ele>462</ele><time></time></trkpt>
        <trkpt lat="29.544336" lon="104.265527"><ele>463</ele><time></time></trkpt>
        <trkpt lat="29.544765" lon="104.265652"><ele>458</ele><time></time></trkpt>
        <trkpt lat="29.545185" lon="104.26584"><ele>448</ele><time></time></trkpt>
        <trkpt lat="29.545528" lon="104.266096"><ele>452</ele><time></time></trkpt>
        <trkpt lat="29.545925" lon="104.266236"><ele>455</ele><time></time></trkpt>
        <trkpt lat="29.546189" lon="104.266373"><ele>450</ele><time></time></trkpt>
        <trkpt lat="29.546193" lon="104.266496"><ele>450</ele><time></time></trkpt>
        <trkpt lat="29.546268" lon="104.266737"><ele>461</ele><time></time></trkpt>
        <trkpt lat="29.546312" lon="104.267169"><ele>473</ele><time></time></trkpt>
        <trkpt lat="29.546435" lon="104.267528"><ele>480</ele><time></time></trkpt>
        <trkpt lat="29.546698" lon="104.267769"><ele>491</ele><time></time></trkpt>
        <trkpt lat="29.546727" lon="104.267849"><ele>491</ele><time></time></trkpt>
        <trkpt lat="29.546932" lon="104.268053"><ele>494</ele><time></time></trkpt>
        <trkpt lat="29.547249" lon="104.268257"><ele>488</ele><time></time></trkpt>
        <trkpt lat="29.547855" lon="104.268615"><ele>477</ele><time></time></trkpt>
        <trkpt lat="29.548116" lon="104.268867"><ele>479</ele><time></time></trkpt>
        <trkpt lat="29.548265" lon="104.26913"><ele>475</ele><time></time></trkpt>
        <trkpt lat="29.548414" lon="104.269457"><ele>477</ele><time></time></trkpt>
        <trkpt lat="29.548741" lon="104.269864"><ele>481</ele><time></time></trkpt>
        <trkpt lat="29.549281" lon="104.270308"><ele>477</ele><time></time></trkpt>
        <trkpt lat="29.549906" lon="104.270737"><ele>481</ele><time></time></trkpt>
        <trkpt lat="29.55023" lon="104.271152"><ele>483</ele><time></time></trkpt>
        <trkpt lat="29.550472" lon="104.271562"><ele>484</ele><time></time></trkpt>
        <trkpt lat="29.550615" lon="104.272079"><ele>481</ele><time></time></trkpt>
        <trkpt lat="29.550569" lon="104.272706"><ele>473</ele><time></time></trkpt>
        <trkpt lat="29.550639" lon="104.273223"><ele>467</ele><time></time></trkpt>
        <trkpt lat="29.550357" lon="104.273362"><ele>472</ele><time></time></trkpt>
        <trkpt lat="29.550326" lon="104.273501"><ele>466</ele><time></time></trkpt>
        <trkpt lat="29.550331" lon="104.273726"><ele>466</ele><time></time></trkpt>
        <trkpt lat="29.550134" lon="104.27386"><ele>471</ele><time></time></trkpt>
        <trkpt lat="29.54984" lon="104.274075"><ele>472</ele><time></time></trkpt>
        <trkpt lat="29.549839" lon="104.2741"><ele>472</ele><time></time></trkpt>
        <trkpt lat="29.549946" lon="104.274168"><ele>471</ele><time></time></trkpt>
        <trkpt lat="29.550738" lon="104.274495"><ele>461</ele><time></time></trkpt>
      </trkseg>
  </trk>
</gpx>